Location: Shepherdstown, WV
(39.4326°N, 77.8042°W)
Time: 20:54:52
(UTC-04:00)

Transit 2A - Pass Details

Date: 12 August 2021
Orbit: 594 x 964 km, 66.7° (Epoch: 24 September)

Event Time Altitude Azimuth Distance (km) Brightness Sun altitude
Exits shadow 03:27:41 18° 112° (ESE) 1,537 7.7 -27.7°
Maximum altitude 03:28:02 18° 106° (ESE) 1,535 7.7 -27.6°
Drops below altitude 10° 03:31:04 10° 64° (ENE) 2,034 9.0 -27.3°
Sets 03:34:03 0° 45° (NE) 3,009 10.4 -26.9°
